Weather Roundup
Issued by NWS Chicago, IL

Home | Current Version | Previous Version | Text Only | Print | Product List | Glossary On
Versions: 1 2 3 4 5 6 7 8 9 10 11 12 13 14 15 16 17 18 19 20 21 22 23 24 25 26 27 28 29 30 31 32 33 34 35 36 37 38 39 40 41 42 43 44 45 46 47 48 49 50
000
NZUS59 KLOT 190510
HRRLOT

CHICAGO AREA WEATHER ROUNDUP
NATIONAL WEATHER SERVICE CHICAGO/ROMEOVILLE IL
1200 AM CDT SAT APR 19 2014

NOTE: "FAIR" INDICATES FEW OR NO CLOUDS BELOW 12,000 FEET WITH NO
SIGNIFICANT WEATHER AND/OR OBSTRUCTIONS TO VISIBILITY.

* THESE STATIONS ARE NOT UNDER NWS QUALITY CONTROL. THEY ALSO MAY NOT
  REPORT WEATHER SUCH AS PRECIPITATION OR FOG.

ILZ005-006-012>014-019>023-190600-
NORTHEAST ILLINOIS

CITY           SKY/WX    TMP DP  RH WIND       PRES   REMARKS
OHARE          CLEAR     38  25  59 VRB7      30.37S
MIDWAY         CLEAR     39  27  62 NE8       30.37S
AURORA         CLEAR     38  27  64 E15       30.35S
LANSING*       CLEAR     38  26  61 NE12      30.36F
JOLIET*        CLEAR     38  28  68 NE9       30.36S
WAUKEGAN       CLEAR     36  26  67 N7        30.37S
DUPAGE AIRPORT CLEAR     37  27  67 NE9       30.36R
WHEELING       CLEAR     38  27  64 NE3       30.39S
KANKAKEE*      CLEAR     37  29  73 NE8       30.36R
MORRIS*        CLEAR     39  27  63 NE7       30.34S
LEWIS AIRPORT* CLEAR     38  27  63 NE15      30.34F
NORTHERLY IS     N/A     39  28  65 N14         N/A
$$

WIZ051-052-058>065-066-070>072-190600-
SOUTHEAST WISCONSIN

CITY           SKY/WX    TMP DP  RH WIND       PRES   REMARKS
MILWAUKEE      CLEAR     35  28  75 NE6       30.40S WCI  30
KENOSHA*       CLEAR     33  27  78 NE8       30.38S WCI  26
RACINE*        CLEAR     35  28  75 NE10      30.40S WCI  27
BURLINGTON     CLEAR     30  26  85 E6        30.37F WCI  24
WAUKESHA       CLEAR     32  27  80 E5        30.39S WCI  27
WEST BEND      CLEAR     32  27  80 NE3       30.39R
$$

INZ001>003-010>013-019-020-190600-
NORTHWEST INDIANA

CITY           SKY/WX    TMP DP  RH WIND       PRES   REMARKS
GARY*          CLEAR     39  29  68 N8        30.37S
MICHIGAN CITY* NOT AVBL
RENSSELAER*    NOT AVBL
VALPARAISO     CLEAR     34  23  64 N5        30.35S WCI  30
$$

LMZ740>746-190600-
SOUTHERN LAKE MICHIGAN

STATION/POSITION TIME  SKY/WX   TEMP WIND        PRES    VSBY
                                AIR  DIR/SP/G
                 (UTC)          (F)  (DEG/KT/KT) (MB)    (MI)
HARRISON CRIB    0500            39   20/ 13/ 16   N/A
BURNHAM HARBOR   0500            39   20/ 12/ 13   N/A
CALUMET HARBOR   0500            38  360/  5/  8 1029.0R
BURNS HARBOR     NOT AVBL
MICHIGAN CITY    0500            38   20/ 11/ 13   N/A
$$

ABBREVIATIONS USED IN REMARKS
   TC - TEMPERATURE IN CELSIUS
  WCI - WIND CHILL INDEX
   HX - HEAT INDEX
  VSB - VISIBILITY
$$



USA.gov is the U.S. government's official web portal to all federal, state and local government web resources and services.